Temperature
2 2 2 2 2 2 2 3 3 4 4 4 4 4 3 2 1 1 1 1 1 1 1 2 2 3 3 3 3 3 3 3 4 4 4 4 4 4 4 4 4 4 4 4
1 2 2 1 1 2 2 2 2 3 3 3 3 2 2 1 1 0 0 -0 0 0 1 1 2 2 2 2 3 3 3 3 3 3 3 3 3 3 3 3 3 3 3 3
1 1 1 1 1 1 1 1 2 2 2 2 2 2 1 0 -0 -0 -0 -0 -0 -0 0 1 1 2 2 2 2 2 2 2 2 3 3 3 3 3 3 3 3 3 3 2
1 1 0 1 1 1 1 1 1 1 2 2 1 1 0 -0 -1 -1 -1 -1 -1 -0 -0 0 1 1 1 2 2 2 2 2 2 2 2 2 2 2 2 2 2 2 2 2
0 0 1 1 -0 -0 -0 0 0 0 1 0 -0 0 0 -0 -1 -1 -1 -1 -1 -1 -1 -0 0 0 1 1 1 1 1 2 2 2 2 2 1 1 2 2 2 1 1 1
-0 -0 -1 0 -1 -1 0 0 -0 -1 -0 -1 -1 1 0 -1 -2 -2 -2 -2 -2 -1 -1 -1 -0 -0 0 0 1 1 1 1 1 1 1 1 1 1 1 1 1 1 1 1
-1 -1 -0 -1 -2 -1 -0 -1 -1 -2 -2 -2 -1 -1 -2 -2 -2 -2 -2 -2 -2 -2 -1 -1 -1 -0 -0 -0 0 0 0 0 1 1 1 0 0 0 0 0 0 0 0 0
-2 -2 -2 -2 -2 -2 -2 -2 -3 -3 -3 -3 -3 -3 -2 -3 -3 -3 -2 -2 -2 -2 -2 -1 -1 -1 -1 -1 -0 -0 -0 -0 -0 -0 -0 -0 -0 -0 -0 -0 -0 -0 -0 -0
-2 -2 -2 -3 -3 -3 -3 -3 -3 -3 -3 -4 -4 -3 -3 -3 -3 -3 -3 -3 -3 -3 -3 -2 -2 -1 -1 -1 -1 -1 -0 -1 -1 -1 -1 -1 -1 -1 -1 -1 -1 -1 -1 -1
-3 -2 -3 -4 -4 -4 -4 -4 -4 -4 -4 -4 -4 -4 -4 -4 -4 -4 -4 -4 -4 -3 -3 -3 -2 -2 -2 -1 -1 -1 -1 -1 -1 -1 -1 -1 -1 -1 -1 -1 -1 -1 -1 -2
-3 -3 -3 -4 -4 -4 -4 -4 -4 -4 -4 -5 -5 -5 -5 -5 -5 -5 -4 -4 -4 -4 -4 -3 -3 -2 -2 -2 -2 -2 -2 -2 -2 -2 -2 -2 -2 -2 -2 -2 -2 -2 -2 -2
-4 -4 -4 -4 -5 -5 -5 -5 -5 -5 -5 -5 -5 -5 -5 -5 -5 -5 -5 -5 -5 -4 -4 -4 -4 -3 -3 -3 -2 -2 -2 -2 -2 -2 -2 -2 -2 -2 -2 -2 -2 -2 -2 -2
-5 -5 -5 -5 -5 -5 -5 -5 -5 -5 -5 -5 -5 -5 -5 -5 -5 -5 -5 -5 -5 -5 -5 -4 -4 -4 -3 -3 -3 -3 -3 -3 -3 -3 -3 -3 -3 -3 -3 -3 -3 -3 -3 -3
-6 -6 -6 -6 -6 -6 -6 -6 -6 -6 -6 -6 -6 -6 -6 -6 -6 -6 -6 -5 -5 -5 -5 -5 -4 -4 -4 -4 -3 -3 -3 -3 -3 -3 -3 -3 -3 -3 -3 -3 -3 -3 -3 -3
-6 -6 -6 -6 -6 -6 -6 -6 -6 -6 -6 -6 -6 -6 -6 -6 -6 -6 -6 -6 -6 -5 -5 -5 -5 -5 -4 -4 -4 -4 -4 -4 -4 -4 -4 -4 -4 -4 -4 -4 -4 -4 -4 -4
-7 -7 -7 -7 -7 -7 -7 -7 -7 -7 -7 -7 -7 -7 -7 -6 -6 -6 -6 -6 -6 -6 -6 -5 -5 -5 -5 -5 -4 -4 -4 -4 -4 -4 -4 -4 -4 -4 -4 -4 -4 -4 -4 -4
-8 -8 -8 -8 -8 -7 -7 -7 -7 -7 -7 -7 -7 -7 -7 -7 -7 -7 -7 -7 -6 -6 -6 -6 -6 -6 -5 -5 -5 -5 -5 -5 -5 -5 -5 -5 -5 -5 -5 -5 -5 -5 -5 -5
-8 -8 -8 -8 -8 -8 -8 -8 -8 -8 -8 -8 -8 -7 -7 -7 -7 -7 -7 -7 -7 -7 -7 -7 -6 -6 -6 -6 -6 -6 -6 -6 -5 -5 -5 -5 -5 -5 -5 -5 -5 -5 -5 -5
-8 -8 -9 -9 -9 -9 -9 -9 -8 -8 -8 -8 -8 -8 -8 -8 -8 -8 -8 -7 -7 -7 -7 -7 -7 -7 -7 -7 -7 -6 -6 -6 -6 -6 -6 -6 -6 -6 -6 -6 -6 -6 -6 -6
-9 -9 -9 -9 -9 -9 -9 -9 -9 -9 -9 -9 -9 -8 -8 -8 -8 -8 -8 -8 -8 -8 -8 -8 -7 -7 -7 -7 -7 -7 -7 -7 -7 -7 -7 -6 -6 -6 -6 -6 -6 -6 -6 -6
-9 -9 -9 -9 -9 -9 -9 -9 -9 -9 -9 -9 -9 -9 -9 -9 -9 -9 -8 -8 -8 -8 -8 -8 -8 -8 -8 -8 -8 -7 -7 -7 -7 -7 -7 -7 -7 -7 -7 -7 -7 -7 -7 -7
-10 -10 -10 -10 -10 -9 -9 -9 -10 -10 -10 -10 -9 -9 -9 -9 -9 -9 -9 -9 -9 -9 -8 -8 -8 -8 -8 -8 -8 -8 -8 -8 -8 -8 -8 -8 -7 -7 -7 -7 -7 -7 -7 -7
-10 -10 -10 -10 -10 -10 -10 -10 -10 -10 -10 -10 -10 -10 -10 -10 -10 -10 -9 -9 -9 -9 -9 -9 -9 -9 -9 -9 -9 -8 -8 -8 -8 -8 -8 -8 -8 -8 -8 -8 -7 -7 -7 -7
-10 -10 -10 -10 -10 -10 -10 -10 -10 -10 -10 -10 -10 -10 -10 -10 -10 -10 -10 -10 -9 -9 -9 -9 -9 -9 -9 -9 -9 -9 -9 -9 -9 -8 -8 -8 -8 -8 -8 -8 -8 -8 -8 -8
-11 -11 -11 -11 -11 -11 -11 -11 -11 -11 -11 -11 -11 -11 -11 -11 -10 -10 -10 -10 -10 -10 -9 -9 -9 -9 -9 -9 -9 -9 -9 -9 -9 -9 -9 -8 -8 -8 -8 -8 -8 -8 -8 -8
-11 -11 -11 -11 -11 -11 -11 -11 -11 -11 -11 -11 -11 -11 -11 -11 -11 -10 -10 -10 -10 -10 -10 -10 -10 -10 -9 -9 -9 -9 -9 -9 -9 -9 -9 -9 -9 -9 -8 -8 -8 -8 -8 -8
-11 -11 -11 -11 -11 -11 -12 -12 -12 -12 -12 -12 -12 -11 -11 -11 -11 -11 -11 -10 -10 -10 -10 -10 -10 -10 -10 -10 -10 -9 -9 -9 -9 -9 -9 -9 -9 -9 -9 -9 -9 -8 -8 -8
Wind_Speed
8 9 6 6 5 5 6 7 7 8 9 9 9 8 7 6 5 4 5 5 5 5 4 4 3 2 1 1 0 1 3 4 4 4 4 4 5 5 5 5 4 4 4 4
7 6 4 3 5 5 5 6 8 9 9 8 8 6 5 5 5 4 5 4 5 5 5 4 3 2 2 1 1 1 2 3 3 4 4 4 4 4 4 4 4 4 4 4
4 5 3 3 5 4 4 4 5 6 8 8 7 6 5 6 5 5 5 5 5 5 5 4 4 3 2 1 1 1 1 2 2 3 4 4 4 4 4 4 4 4 3 3
3 2 2 1 4 4 4 4 4 6 7 7 7 6 5 5 4 5 6 5 5 5 5 5 4 3 2 1 0 1 1 1 2 3 3 4 4 4 4 4 4 4 3 3
2 2 3 3 6 6 5 4 6 7 8 8 8 5 5 6 6 5 6 5 5 5 4 4 3 2 1 1 1 1 0 1 1 2 3 4 4 4 4 4 3 3 3 3
1 1 2 5 10 10 4 3 8 8 9 8 7 5 6 8 8 7 6 5 5 4 4 3 3 2 1 1 1 0 0 0 1 2 3 3 3 3 3 3 3 3 3 2
2 2 2 7 10 5 1 6 11 9 8 7 5 5 7 8 8 7 6 6 5 4 3 3 3 2 1 1 1 1 1 1 1 1 2 2 3 3 3 3 3 3 3 2
2 2 3 7 6 3 6 9 10 9 9 7 7 8 8 7 7 7 7 6 6 5 4 4 3 2 2 2 2 2 1 2 2 2 2 2 3 2 3 3 3 3 2 2
1 2 4 5 6 7 8 9 9 9 8 7 8 8 8 8 7 7 7 6 6 5 5 5 4 3 2 2 2 2 2 2 2 3 3 2 2 3 2 3 2 2 2 2
2 4 6 7 8 8 8 8 8 8 8 7 7 7 8 7 7 7 6 6 5 5 5 5 5 4 3 3 2 2 3 2 2 3 3 2 1 1 1 2 2 2 2 2
4 6 7 6 8 9 9 9 9 8 8 7 7 7 7 7 7 6 5 5 5 5 5 5 5 5 5 4 3 3 3 2 2 2 2 1 1 1 0 1 2 2 2 2
5 7 7 8 10 10 9 9 8 8 8 7 6 6 6 6 6 5 5 5 5 5 5 5 5 5 5 5 4 3 2 2 2 1 1 1 1 1 2 1 1 2 2 3
6 8 7 8 9 9 8 8 8 7 7 7 7 6 5 5 5 5 5 5 5 5 5 5 5 5 5 5 4 2 2 2 1 1 1 1 0 0 1 1 1 1 2 2
7 7 6 7 8 8 8 8 7 7 6 6 6 6 5 5 5 6 6 6 5 5 5 5 5 5 5 5 4 3 2 2 1 1 1 1 1 1 1 1 2 2 2 2
8 6 6 7 8 8 7 7 7 7 7 7 6 6 6 6 6 6 6 6 5 5 5 5 5 6 6 5 4 3 2 2 2 1 1 1 1 1 1 2 2 2 2 2
9 7 6 7 8 9 8 7 7 8 8 7 7 7 6 6 6 6 6 5 5 5 5 5 6 6 6 5 4 3 2 3 2 2 1 1 1 1 2 2 2 2 2 2
7 8 9 9 9 9 8 8 7 7 7 7 7 7 6 6 6 6 6 6 5 5 5 5 6 7 6 5 4 3 3 2 2 2 2 2 2 2 2 2 2 3 3 3
6 7 7 8 8 8 8 8 7 7 6 6 6 6 5 5 6 6 6 6 5 5 6 6 7 6 6 5 4 3 3 2 2 2 2 2 2 2 2 3 3 3 3 3
7 7 7 7 7 7 7 7 7 6 6 5 5 5 5 5 5 6 6 5 5 6 7 7 9 7 6 6 6 3 3 3 2 3 2 3 3 2 3 3 3 3 3 2
8 8 8 8 8 7 7 7 7 6 6 5 5 5 6 6 6 6 6 5 4 5 7 7 7 6 6 6 6 4 3 3 3 3 3 3 3 3 3 3 3 3 3 3
9 9 8 8 8 8 7 7 6 6 6 6 5 5 6 6 6 5 5 5 6 7 7 7 6 5 5 6 6 4 4 4 3 3 3 3 3 3 3 3 3 3 3 3
8 8 8 8 8 8 8 7 6 6 6 6 6 5 6 6 6 5 5 4 6 8 7 5 5 6 7 7 4 4 4 4 4 4 4 4 4 4 4 4 4 3 3 3
7 7 7 7 8 8 8 7 7 7 6 6 6 6 6 6 5 5 5 5 5 8 7 5 7 9 9 6 4 4 4 4 4 4 4 4 4 4 4 4 4 3 3 3
7 7 7 7 7 7 8 8 8 7 7 6 6 6 6 6 5 4 4 7 9 9 6 7 9 9 8 4 4 4 4 5 5 5 5 4 4 4 4 4 4 4 4 4
6 6 6 7 7 6 7 8 8 7 7 6 7 7 6 5 5 6 6 7 8 8 6 7 8 8 6 4 4 5 4 5 5 5 5 4 4 4 4 4 4 4 4 4
6 5 5 5 5 6 6 6 6 6 7 7 7 6 6 6 6 6 5 6 7 7 6 5 5 6 5 5 5 5 5 5 5 5 5 4 5 5 4 4 5 4 4 4
5 5 4 5 5 5 5 6 6 6 7 7 7 7 7 7 6 6 7 6 6 5 5 5 5 5 5 5 5 5 5 5 5 5 5 4 4 4 4 5 4 4 4 4
Wind_Direction
278 290 289 283 284 268 250 256 261 278 285 298 309 315 323 333 341 346 352 358 351 345 343 343 350 351 347 339 203 185 180 176 182 184 180 178 176 176 177 178 180 182 183 187
275 275 280 298 314 284 270 272 273 285 288 312 316 322 331 337 341 339 341 343 340 338 337 336 337 334 327 324 327 185 181 182 177 174 174 175 173 170 169 172 176 175 181 183
278 299 286 312 320 293 292 294 274 279 290 315 317 320 324 327 325 324 327 327 327 329 327 320 314 315 306 296 283 178 176 180 170 170 169 170 167 168 172 172 168 167 171 177
283 300 248 336 355 320 300 312 313 306 313 317 317 319 325 331 325 322 323 320 322 325 325 322 316 318 314 305 193 163 162 170 172 175 174 168 167 170 171 171 170 168 170 179
260 281 295 326 346 328 294 302 336 319 322 332 339 344 352 355 342 327 322 319 320 324 321 320 321 328 5 60 92 104 127 183 190 183 177 172 173 175 173 168 167 165 166 172
283 272 303 331 334 326 295 319 346 331 325 335 345 339 333 343 342 337 333 332 334 337 339 337 333 342 58 78 81 50 316 273 189 182 176 173 175 174 170 165 161 155 157 172
289 268 299 339 338 343 357 329 335 334 333 339 338 324 323 333 341 342 345 349 350 353 355 348 345 8 63 49 10 336 350 28 103 140 150 156 158 162 161 156 151 150 152 167
273 270 301 348 359 358 324 325 331 336 339 339 337 340 342 345 346 349 357 360 359 1 0 2 8 38 52 22 2 20 49 68 87 99 107 125 137 143 149 150 149 152 154 156
265 283 330 336 331 325 326 326 332 336 337 340 339 342 346 347 348 351 356 1 2 4 4 9 16 34 42 10 23 55 69 74 83 87 90 107 127 136 139 150 158 164 171 181
294 303 319 328 331 332 332 330 333 336 337 340 339 340 343 345 346 349 354 358 2 9 14 11 12 21 25 19 38 67 74 71 77 85 82 82 91 124 149 167 171 177 187 199
299 312 320 330 335 332 333 336 339 340 338 337 337 339 340 340 341 342 349 355 2 6 6 6 9 17 17 16 33 57 60 55 58 66 76 70 54 27 255 237 224 215 215 217
298 314 309 314 327 331 332 334 336 337 339 340 342 337 338 337 338 339 346 354 358 1 4 5 11 14 12 12 26 40 40 31 30 36 32 26 44 33 24 339 322 287 260 249
293 306 307 311 324 333 332 334 337 337 336 337 341 342 345 344 346 348 352 355 354 354 357 3 10 10 5 5 9 18 17 1 353 359 339 316 294 287 343 10 7 323 290 274
317 316 313 326 327 332 334 335 338 342 344 343 342 345 348 348 349 350 348 344 345 351 358 2 7 3 356 353 353 349 347 342 325 306 295 287 279 275 271 285 300 308 307 287
336 330 314 319 328 335 338 341 345 346 346 346 347 348 349 349 347 344 342 343 348 357 0 1 1 353 348 346 346 341 333 321 312 304 298 293 290 287 277 271 278 291 304 299
327 333 333 335 335 336 339 342 340 336 337 337 339 341 342 342 341 343 347 350 353 352 351 353 350 343 342 343 342 337 328 333 327 308 297 289 282 272 270 271 276 280 284 293
331 333 335 334 333 331 331 329 326 324 327 329 330 333 338 343 346 348 349 350 349 347 348 348 341 339 339 339 336 327 322 320 325 305 286 275 268 266 265 261 262 268 276 282
321 316 317 316 317 321 325 328 327 326 325 323 324 331 337 341 339 337 339 344 350 354 355 349 344 341 340 338 334 325 319 310 305 297 289 277 272 270 268 264 264 269 279 279
338 331 328 326 327 325 324 327 328 326 324 327 330 332 332 332 331 332 335 342 347 345 342 342 342 343 338 338 336 321 317 309 301 297 290 283 278 273 270 269 270 271 274 275
343 341 340 341 342 340 334 332 333 333 335 337 336 335 334 333 333 333 334 332 333 329 326 332 335 334 331 331 333 323 319 311 302 296 292 285 279 276 272 269 269 272 273 269
343 345 347 346 345 346 346 344 343 339 337 338 335 330 326 325 328 330 330 327 330 334 331 329 331 328 328 330 327 324 320 314 306 296 289 285 283 280 276 275 272 270 269 269
341 342 342 343 344 345 347 347 346 342 341 340 336 331 328 328 330 327 319 311 319 327 328 321 322 325 329 327 320 318 315 312 307 302 295 290 286 284 282 283 279 276 272 270
335 337 339 341 341 339 341 347 348 344 340 336 333 331 328 321 318 315 317 319 320 321 322 313 319 323 325 323 316 312 310 307 303 298 294 292 288 286 284 283 281 278 276 273
335 338 338 338 340 343 344 346 345 341 336 331 329 327 324 321 317 312 304 310 317 317 313 312 319 322 324 320 311 305 302 300 297 295 295 293 290 286 282 279 279 278 276 276
331 332 336 341 345 342 337 336 338 341 341 337 334 333 327 319 310 313 312 311 315 317 313 313 318 322 321 308 303 299 296 294 294 293 290 289 288 286 284 283 280 278 276 271
330 331 331 331 329 328 330 333 335 335 335 333 332 332 331 326 318 315 314 313 312 314 315 312 312 314 310 306 302 299 295 295 294 292 289 287 285 284 282 282 283 278 277 274
328 329 329 332 335 335 331 330 330 330 330 326 324 326 328 327 324 323 320 317 317 316 314 312 311 309 307 305 302 300 295 292 290 288 287 283 281 279 279 279 278 279 278 275
Height
1474 1472 1471 1470 1469 1468 1466 1462 1459 1455 1455 1453 1453 1453 1453 1452 1451 1450 1448 1447 1445 1444 1443 1443 1443 1443 1443 1444 1444 1446 1447 1448 1450 1452 1454 1456 1457 1459 1461 1463 1464 1466 1467 1469
1474 1470 1470 1470 1469 1468 1466 1464 1461 1459 1456 1456 1455 1454 1453 1452 1451 1449 1448 1447 1446 1444 1443 1442 1442 1442 1442 1442 1443 1444 1445 1446 1448 1449 1451 1452 1454 1456 1457 1459 1461 1462 1464 1465
1470 1469 1468 1469 1471 1469 1467 1465 1463 1460 1458 1456 1455 1454 1453 1452 1450 1449 1447 1446 1445 1443 1442 1441 1441 1441 1441 1441 1442 1443 1443 1444 1445 1447 1448 1449 1451 1453 1454 1456 1458 1459 1460 1462
1472 1470 1472 1471 1471 1470 1467 1465 1464 1461 1458 1457 1455 1453 1452 1451 1450 1448 1447 1445 1443 1442 1441 1441 1440 1440 1440 1440 1441 1441 1442 1443 1444 1444 1446 1447 1448 1450 1452 1454 1455 1456 1458 1459
1473 1469 1468 1470 1472 1471 1468 1465 1466 1463 1460 1458 1456 1453 1451 1451 1449 1448 1446 1444 1442 1441 1440 1440 1439 1439 1439 1439 1440 1440 1440 1441 1442 1443 1444 1445 1446 1447 1449 1451 1452 1454 1455 1456
1475 1473 1474 1474 1474 1471 1469 1465 1466 1464 1461 1459 1456 1452 1451 1451 1449 1447 1445 1443 1442 1440 1439 1439 1438 1438 1438 1438 1438 1439 1440 1440 1441 1442 1442 1443 1444 1446 1447 1449 1450 1451 1452 1454
1478 1477 1474 1478 1476 1471 1471 1471 1468 1465 1463 1460 1458 1457 1455 1451 1448 1447 1444 1442 1441 1439 1438 1437 1437 1437 1437 1437 1438 1438 1439 1439 1440 1440 1441 1441 1443 1444 1445 1446 1448 1449 1450 1451
1481 1480 1482 1481 1478 1477 1476 1473 1470 1466 1463 1461 1459 1456 1454 1451 1448 1446 1444 1442 1440 1439 1438 1437 1437 1436 1436 1436 1437 1437 1438 1438 1438 1439 1439 1440 1441 1442 1444 1445 1446 1447 1448 1449
1484 1485 1484 1483 1481 1480 1477 1473 1470 1467 1464 1462 1459 1456 1454 1451 1449 1447 1445 1443 1441 1440 1438 1437 1436 1436 1436 1436 1436 1436 1437 1437 1438 1438 1439 1440 1440 1441 1442 1443 1444 1445 1446 1447
1486 1484 1484 1483 1481 1478 1475 1473 1470 1467 1464 1462 1459 1456 1454 1451 1449 1447 1446 1444 1442 1440 1438 1437 1437 1436 1436 1436 1436 1436 1436 1437 1437 1437 1438 1439 1440 1441 1441 1442 1442 1443 1444 1445
1486 1485 1483 1481 1480 1477 1474 1471 1468 1466 1464 1461 1459 1456 1454 1452 1450 1448 1446 1444 1443 1441 1439 1438 1437 1437 1436 1436 1436 1436 1436 1436 1437 1437 1438 1439 1439 1440 1440 1441 1441 1442 1443 1443
1488 1487 1485 1482 1479 1476 1473 1470 1468 1465 1463 1461 1459 1456 1453 1451 1450 1448 1446 1444 1443 1442 1440 1439 1438 1437 1437 1437 1436 1436 1436 1437 1437 1437 1437 1438 1438 1438 1439 1439 1440 1440 1440 1441
1489 1486 1483 1480 1478 1475 1472 1469 1467 1465 1462 1460 1458 1456 1453 1451 1449 1448 1446 1444 1443 1442 1440 1439 1438 1438 1437 1437 1437 1437 1437 1436 1436 1436 1437 1437 1437 1437 1437 1438 1438 1438 1438 1438
1487 1484 1481 1479 1477 1474 1471 1469 1466 1464 1461 1459 1457 1455 1453 1451 1449 1448 1446 1445 1443 1442 1440 1439 1438 1437 1437 1437 1437 1437 1436 1436 1436 1435 1435 1435 1436 1436 1436 1435 1435 1435 1436 1436
1485 1483 1481 1478 1475 1473 1470 1467 1465 1462 1460 1458 1456 1454 1452 1450 1448 1447 1446 1444 1443 1441 1440 1438 1437 1437 1437 1436 1436 1435 1435 1435 1434 1434 1434 1434 1434 1434 1434 1433 1433 1433 1433 1433
1484 1482 1479 1476 1474 1471 1469 1466 1463 1461 1459 1457 1455 1453 1452 1450 1448 1447 1445 1444 1442 1440 1439 1438 1437 1436 1436 1435 1434 1434 1433 1433 1433 1432 1432 1432 1432 1432 1431 1431 1431 1431 1431 1431
1483 1480 1477 1474 1472 1470 1467 1465 1462 1460 1458 1456 1454 1452 1450 1449 1447 1446 1444 1443 1442 1440 1439 1438 1437 1436 1435 1434 1433 1432 1431 1431 1431 1430 1430 1430 1430 1430 1429 1429 1429 1429 1429 1429
1483 1480 1477 1474 1471 1468 1465 1463 1461 1458 1456 1455 1453 1451 1449 1448 1446 1445 1443 1442 1441 1439 1438 1437 1436 1435 1433 1432 1431 1430 1429 1429 1428 1428 1428 1427 1427 1427 1427 1427 1427 1426 1426 1426
1480 1478 1475 1472 1470 1466 1463 1461 1459 1457 1455 1453 1451 1450 1448 1447 1446 1444 1443 1441 1439 1438 1437 1436 1435 1433 1432 1431 1430 1428 1427 1427 1426 1426 1425 1425 1425 1425 1425 1424 1424 1424 1423 1423
1479 1476 1473 1470 1468 1465 1462 1459 1457 1455 1453 1452 1450 1448 1447 1446 1444 1443 1441 1440 1439 1437 1436 1435 1433 1432 1430 1429 1428 1427 1425 1425 1424 1423 1423 1423 1422 1422 1422 1422 1421 1421 1421 1420
1477 1475 1472 1469 1466 1464 1461 1458 1456 1454 1452 1450 1448 1447 1445 1444 1443 1441 1439 1438 1437 1436 1434 1433 1432 1430 1429 1427 1426 1425 1423 1422 1422 1421 1420 1420 1420 1419 1419 1419 1419 1418 1418 1417
1476 1474 1471 1468 1465 1463 1460 1458 1455 1453 1451 1449 1447 1446 1444 1442 1441 1439 1438 1437 1435 1434 1432 1431 1430 1428 1427 1425 1424 1423 1422 1420 1419 1419 1418 1418 1417 1417 1416 1416 1415 1415 1415 1414
1475 1473 1470 1467 1464 1462 1459 1457 1455 1452 1450 1448 1446 1444 1442 1441 1439 1437 1436 1435 1433 1432 1430 1429 1427 1426 1425 1423 1422 1420 1419 1418 1417 1416 1416 1415 1414 1414 1413 1413 1412 1412 1411 1411
1474 1471 1469 1466 1464 1461 1458 1456 1453 1451 1449 1447 1445 1443 1440 1438 1437 1436 1434 1432 1431 1429 1428 1426 1425 1423 1422 1421 1419 1418 1417 1415 1414 1413 1413 1412 1411 1411 1410 1409 1409 1409 1408 1408
1472 1470 1467 1465 1462 1459 1457 1454 1452 1450 1447 1445 1443 1441 1439 1437 1435 1433 1432 1430 1428 1427 1425 1423 1422 1421 1419 1418 1416 1415 1414 1413 1412 1411 1410 1409 1408 1407 1407 1406 1406 1405 1405 1404
1471 1468 1466 1464 1461 1459 1456 1453 1451 1448 1446 1443 1441 1439 1437 1435 1433 1431 1429 1427 1426 1424 1422 1421 1420 1418 1417 1415 1414 1412 1411 1410 1409 1408 1407 1406 1405 1404 1404 1403 1402 1402 1401 1401
1469 1467 1465 1462 1460 1458 1455 1452 1450 1447 1444 1442 1439 1437 1435 1433 1431 1429 1427 1425 1423 1422 1420 1419 1417 1415 1414 1412 1411 1410 1408 1407 1406 1405 1404 1403 1402 1401 1401 1400 1399 1399 1398 1398